Погода в Зауральском

Россия / Челябинская область     54°47′26″N   61°13′56″E
темп.,
°C
ветер,
м/с
пор.,
м/с
влажн.,
%
обл.,
%
осадки,
мм/ч
давл.,
гПа
погр.,
м
18 мая, вт
вт1823:00+20з454998 0.7 101759
02:00+18з1159100 0.1 101611
05:00+15св22785 0.3 101722
08:00+21з1248100 0.1 1015100
11:00+25зюз5740100 0.1 1014791
14:00+28сз69305 0.0 10133226
17:00+27ссз67275 0.0 10122889
20:00+20св7126094 0.0 1015709
19 мая, ср
ср1923:00+15ссв712805 1.9 1018490
02:00+13св61183100 0.0 1020555
05:00+11св610816 0.0 1021492
08:00+13св697319 0.0 1022716
11:00+17св67505 0.0 10231284
14:00+19св67415 0.0 10231599
17:00+20всв55395 0.0 10221605
20:00+17всв35535 0.0 1023102
20 мая, чт
чт2023:00+13всв3358100 0.0 102433
02:00+12вюв2260100 0.0 102417
05:00+11вюв11665 0.0 102510
08:00+16ююз115220 0.0 1025297
11:00+20ю11394 0.0 10241305
14:00+22ю22335 0.0 10231601
17:00+23ююз223085 0.0 10221644
20:00+20ююз114219 0.0 102111
21 мая, пт
пт2123:00+16ю22465 0.0 102211
02:00+14зюз22475 0.0 102210
05:00+13юз22525 0.0 102210
08:00+18юз34441 0.0 1022263
11:00+22ююз45330 0.0 10221398
14:00+25ю45270 0.0 10211990
17:00+25ююз45260 0.0 10202254
20:00+21ю23400 0.0 102019
22 мая, сб
сб2223:00+17ю33421 0.0 102130
02:00+15ю36475 0.0 102078
05:00+14ю334956 0.0 102133
08:00+19зюз355086 0.0 1021197
11:00+24ююз34418 0.0 10211083
14:00+26зюз353599 0.0 10212401
17:00+27з352871 0.0 10202724
20:00+23ссв224690 0.0 102011